Location: Jackson
(42.2460°N, 84.4010°W)
Time: 18:58:34
(UTC-04:00)

Courier 1B Rocket - Pass Details

Date: 09 February 2026
Orbit: 920 x 1201 km, 28.2° (Epoch: 12 March)

Event Time Altitude Azimuth Distance (km) Brightness Sun altitude
Rises 21:38:38 0° 203° (SSW) 3,682 - -40.1°
Reaches altitude 10° 21:43:32 10° 172° (S) 2,808 - -40.9°
Maximum altitude 21:45:34 11° 154° (SSE) 2,737 - -41.3°
Drops below altitude 10° 21:47:38 10° 137° (SE) 2,874 - -41.7°
Sets 21:52:50 0° 106° (ESE) 3,914 - -42.5°
